Meteo pe oră la Bolshoe Olzhevo

Astăzi, 8 Mai, Sâmbătă

Timp Temperatura Precipitaţii Vânt Presiune Umiditate
00:00 +2°C° 0 mm 2 m/s 743 mmHg 94%
01:00 +2°C° 0 mm 2 m/s 743 mmHg 94%
02:00 +1°C° 0 mm 2 m/s 743 mmHg 93%
03:00 +1°C° 0 mm 2 m/s 744 mmHg 94%
04:00 0°C° 0 mm 3 m/s 744 mmHg 94%
05:00 0°C° 0 mm 3 m/s 744 mmHg 94%
06:00 0°C° 0 mm 4 m/s 745 mmHg 92%
07:00 +1°C° 0 mm 5 m/s 745 mmHg 90%
08:00 +1°C° 0 mm 5 m/s 746 mmHg 87%
09:00 +2°C° 0 mm 5 m/s 746 mmHg 81%
10:00 +3°C° 0 mm 5 m/s 747 mmHg 74%
11:00 +3°C° 0 mm 5 m/s 747 mmHg 68%
12:00 +6°C° 0 mm 5 m/s 747 mmHg 62%
13:00 +7°C° 0 mm 5 m/s 747 mmHg 57%
14:00 +8°C° 0 mm 5 m/s 748 mmHg 52%
15:00 +8°C° 0.1 mm 5 m/s 748 mmHg 54%
16:00 +8°C° 0.1 mm 5 m/s 748 mmHg 56%
17:00 +8°C° 0.1 mm 5 m/s 748 mmHg 57%
18:00 +6°C° 0.1 mm 4 m/s 748 mmHg 66%
19:00 +5°C° 0.1 mm 3 m/s 749 mmHg 75%
20:00 +4°C° 0.1 mm 2 m/s 749 mmHg 84%
21:00 +4°C° 0 mm 2 m/s 750 mmHg 86%
22:00 +3°C° 0 mm 2 m/s 750 mmHg 88%
23:00 +3°C° 0 mm 2 m/s 750 mmHg 90%

Mâine, 9 Mai, Duminică

Timp Temperatura Precipitaţii Vânt Presiune Umiditate
00:00 +2°C° 0 mm 2 m/s 751 mmHg 91%
01:00 +2°C° 0 mm 2 m/s 751 mmHg 92%
02:00 +1°C° 0 mm 2 m/s 752 mmHg 92%
03:00 +1°C° 0 mm 2 m/s 752 mmHg 93%
04:00 +2°C° 0 mm 1 m/s 752 mmHg 94%
05:00 +2°C° 0 mm 1 m/s 753 mmHg 94%
06:00 +4°C° 0 mm 1 m/s 753 mmHg 89%
07:00 +4°C° 0 mm 2 m/s 753 mmHg 83%
08:00 +6°C° 0 mm 2 m/s 754 mmHg 78%
09:00 +8°C° 0 mm 2 m/s 754 mmHg 70%
10:00 +9°C° 0 mm 2 m/s 754 mmHg 63%
11:00 +10°C° 0 mm 3 m/s 754 mmHg 55%
12:00 +11°C° 0 mm 3 m/s 754 mmHg 52%
13:00 +12°C° 0 mm 3 m/s 754 mmHg 48%
14:00 +13°C° 0 mm 4 m/s 754 mmHg 45%
15:00 +13°C° 0 mm 3 m/s 753 mmHg 47%
16:00 +13°C° 0 mm 3 m/s 753 mmHg 50%
17:00 +13°C° 0 mm 3 m/s 753 mmHg 52%
18:00 +12°C° 0 mm 3 m/s 753 mmHg 57%
19:00 +11°C° 0 mm 3 m/s 753 mmHg 62%
20:00 +10°C° 0 mm 3 m/s 753 mmHg 67%
21:00 +10°C° 0 mm 3 m/s 753 mmHg 66%
22:00 +10°C° 0 mm 4 m/s 754 mmHg 65%
23:00 +10°C° 0 mm 4 m/s 754 mmHg 64%

Poimâine, 10 Mai, Luni

Timp Temperatura Precipitaţii Vânt Presiune Umiditate
00:00 +10°C° 0 mm 4 m/s 754 mmHg 66%
01:00 +8°C° 0 mm 4 m/s 754 mmHg 68%
02:00 +7°C° 0 mm 4 m/s 754 mmHg 70%
03:00 +7°C° 0 mm 4 m/s 754 mmHg 73%
04:00 +6°C° 0 mm 4 m/s 754 mmHg 77%
05:00 +6°C° 0 mm 4 m/s 754 mmHg 80%
06:00 +8°C° 0 mm 4 m/s 754 mmHg 77%
07:00 +9°C° 0 mm 5 m/s 755 mmHg 74%
08:00 +12°C° 0 mm 5 m/s 755 mmHg 70%
09:00 +13°C° 0 mm 5 m/s 755 mmHg 65%
10:00 +15°C° 0 mm 6 m/s 755 mmHg 60%
11:00 +17°C° 0 mm 7 m/s 755 mmHg 55%
12:00 +17°C° 0 mm 7 m/s 755 mmHg 54%
13:00 +18°C° 0 mm 7 m/s 754 mmHg 53%
14:00 +18°C° 0 mm 7 m/s 754 mmHg 52%
15:00 +18°C° 0 mm 7 m/s 754 mmHg 55%
16:00 +19°C° 0 mm 6 m/s 754 mmHg 57%
17:00 +19°C° 0 mm 6 m/s 754 mmHg 60%
18:00 +16°C° 0 mm 5 m/s 754 mmHg 65%
19:00 +15°C° 0 mm 5 m/s 754 mmHg 69%
20:00 +13°C° 0 mm 4 m/s 754 mmHg 74%
21:00 +13°C° 0 mm 4 m/s 754 mmHg 74%
22:00 +12°C° 0 mm 5 m/s 754 mmHg 75%
23:00 +10°C° 0 mm 5 m/s 754 mmHg 76%

11 Mai, Marţi

Timp Temperatura Precipitaţii Vânt Presiune Umiditate
00:00 +10°C° 0 mm 5 m/s 754 mmHg 76%
01:00 +9°C° 0 mm 5 m/s 754 mmHg 76%
02:00 +9°C° 0 mm 5 m/s 754 mmHg 76%
03:00 +8°C° 0 mm 5 m/s 754 mmHg 77%
04:00 +8°C° 0 mm 5 m/s 754 mmHg 77%
05:00 +8°C° 0 mm 5 m/s 754 mmHg 78%
06:00 +9°C° 0 mm 6 m/s 754 mmHg 75%
07:00 +10°C° 0 mm 6 m/s 754 mmHg 71%
08:00 +12°C° 0 mm 7 m/s 754 mmHg 68%
09:00 +14°C° 0 mm 7 m/s 754 mmHg 62%
10:00 +15°C° 0 mm 8 m/s 754 mmHg 57%
11:00 +17°C° 0 mm 8 m/s 754 mmHg 51%
12:00 +17°C° 0 mm 8 m/s 754 mmHg 49%
13:00 +18°C° 0 mm 7 m/s 753 mmHg 48%
14:00 +20°C° 0 mm 7 m/s 753 mmHg 46%
15:00 +18°C° 0 mm 7 m/s 753 mmHg 49%
16:00 +19°C° 0 mm 6 m/s 753 mmHg 53%
17:00 +19°C° 0 mm 6 m/s 752 mmHg 56%
18:00 +16°C° 0 mm 6 m/s 752 mmHg 60%
19:00 +15°C° 0 mm 5 m/s 752 mmHg 63%
20:00 +13°C° 0 mm 5 m/s 752 mmHg 67%
21:00 +13°C° 0 mm 5 m/s 752 mmHg 67%
22:00 +12°C° 0 mm 5 m/s 752 mmHg 67%
23:00 +10°C° 0 mm 5 m/s 752 mmHg 68%

12 Mai, Miercuri

Timp Temperatura Precipitaţii Vânt Presiune Umiditate
00:00 +10°C° 0 mm 5 m/s 752 mmHg 72%
01:00 +10°C° 0 mm 4 m/s 752 mmHg 77%
02:00 +8°C° 0 mm 4 m/s 752 mmHg 82%
03:00 +8°C° 0 mm 4 m/s 752 mmHg 86%
04:00 +8°C° 0 mm 4 m/s 751 mmHg 90%
05:00 +8°C° 0 mm 4 m/s 751 mmHg 94%
06:00 +11°C° 0 mm 4 m/s 751 mmHg 89%
07:00 +12°C° 0 mm 5 m/s 751 mmHg 84%
08:00 +14°C° 0 mm 5 m/s 751 mmHg 79%
09:00 +15°C° 0 mm 5 m/s 751 mmHg 71%
10:00 +16°C° 0 mm 5 m/s 750 mmHg 63%
11:00 +19°C° 0 mm 5 m/s 750 mmHg 55%
12:00 +19°C° 0.1 mm 6 m/s 750 mmHg 59%
13:00 +19°C° 0.1 mm 6 m/s 749 mmHg 64%
14:00 +18°C° 0.1 mm 7 m/s 749 mmHg 69%
15:00 +17°C° 0.1 mm 7 m/s 749 mmHg 71%
16:00 +16°C° 0.1 mm 6 m/s 749 mmHg 73%
17:00 +15°C° 0.1 mm 6 m/s 749 mmHg 75%
18:00 +13°C° 0 mm 5 m/s 749 mmHg 77%
19:00 +12°C° 0 mm 4 m/s 749 mmHg 79%
20:00 +10°C° 0 mm 3 m/s 749 mmHg 81%
21:00 +10°C° 0 mm 3 m/s 749 mmHg 83%
22:00 +10°C° 0 mm 4 m/s 749 mmHg 85%
23:00 +10°C° 0 mm 4 m/s 749 mmHg 86%

13 Mai, Joi

Timp Temperatura Precipitaţii Vânt Presiune Umiditate
00:00 +8°C° 0 mm 4 m/s 749 mmHg 89%
01:00 +8°C° 0 mm 4 m/s 748 mmHg 91%
02:00 +7°C° 0 mm 4 m/s 748 mmHg 94%
03:00 +7°C° 0 mm 4 m/s 748 mmHg 92%
04:00 +8°C° 0 mm 3 m/s 748 mmHg 90%
05:00 +9°C° 0 mm 3 m/s 747 mmHg 89%
06:00 +9°C° 0 mm 3 m/s 747 mmHg 87%
07:00 +10°C° 0 mm 3 m/s 747 mmHg 86%
08:00 +10°C° 0 mm 4 m/s 746 mmHg 84%
09:00 +10°C° 0.6 mm 3 m/s 746 mmHg 87%
10:00 +10°C° 0.6 mm 2 m/s 745 mmHg 90%
11:00 +10°C° 0.6 mm 2 m/s 745 mmHg 93%
12:00 +10°C° 0.6 mm 2 m/s 745 mmHg 91%
13:00 +10°C° 0.6 mm 2 m/s 744 mmHg 89%
14:00 +10°C° 0.6 mm 2 m/s 744 mmHg 88%
15:00 +11°C° 0.1 mm 3 m/s 744 mmHg 82%
16:00 +12°C° 0.1 mm 3 m/s 744 mmHg 77%
17:00 +13°C° 0.1 mm 3 m/s 743 mmHg 71%
18:00 +12°C° 0.1 mm 4 m/s 743 mmHg 77%
19:00 +11°C° 0.1 mm 4 m/s 744 mmHg 82%
20:00 +8°C° 0.1 mm 4 m/s 744 mmHg 88%
21:00 +8°C° 0 mm 4 m/s 744 mmHg 90%
22:00 +8°C° 0 mm 4 m/s 743 mmHg 92%
23:00 +8°C° 0 mm 4 m/s 743 mmHg 94%
Arată mai mult

Formular de consimțământ

Meteoprog și furnizorii noștri de servicii pot stoca și accesa date personale, precum cookies, identificatori de dispozitiv sau alte tehnologii similare pe dispozitivul dumneavoastră și procesa astfel de date pentru a personaliza conținutul și reclamele, dar și pentru a oferi caracteristici de social media și pentru a analiza traficul.

  • Stocarea și/sau accesarea informațiilor pe dispozitivul dumneavoastră

    Cookies, identificatori de dispozitiv sau alte informații pot fi stocate sau accesate pe dispozitiv în scopurile indicate mai sus.

  • Reclame și conținut personalizat, evaluarea reclamelor și a conținutului, informații despre audiențe și dezvoltarea produselor

    Reclamele și conținutul pot fi personalizate pe baza unui profil. Pot fi adăugate date suplimentare pentru a personaliza mai bine reclamele și conținutul. Performanța reclamelor și conținutului poate fi măsurată. Pot fi obținute informații despre utilizatorii care au văzut reclamele și conținutul. Aceste date pot fi utilizate pentru a dezvolta sau îmbunătăți experiența utilizatorilor, sistemele și software-ul.

Dând clic pe ‘Sunt de acord’, permiteți utilizarea cookie-urilor menționate, a identificatorilor de dispozitiv, balizelor web sau altor tehnologii similare. Setările pot fi modificate din browser-ul dispozitivului dumneavoastră.

În anumite scopuri, interesele legitime pot prima asupra consimțământului. Puteți citi mai multe informații în acest sens în Politica privind Confidențialitatea Datelor și Cookie.